Time,TemperatureF,DewpointF,PressureIn,WindDirection,WindDirectionDegrees,WindSpeedMPH,WindSpeedGustMPH,Humidity,HourlyPrecipIn,Conditions,Clouds,dailyrainin,SoftwareType,DateUTC
2013-02-12 00:01:00,32.0,29.0,-100.00,North,-999,0.0,0.0,88,-99.99,,,-99.99,,2013-02-12 08:01:00,
2013-02-12 00:11:00,32.0,29.0,-100.00,North,-999,0.0,0.0,88,-99.99,,,-99.99,,2013-02-12 08:11:00,
2013-02-12 01:01:00,32.0,29.0,-100.00,SE,140,2.0,3.0,88,-99.99,,,-99.99,,2013-02-12 09:01:00,
2013-02-12 01:11:00,32.0,29.0,-100.00,SE,140,2.0,3.0,88,-99.99,,,-99.99,,2013-02-12 09:11:00,
2013-02-12 02:01:00,31.0,29.0,-100.00,SSE,155,1.0,1.0,92,-99.99,,,-99.99,,2013-02-12 10:01:00,
2013-02-12 03:01:00,30.0,28.0,-100.00,SE,140,0.0,1.0,92,-99.99,,,-99.99,,2013-02-12 11:01:00,
2013-02-12 03:11:00,30.0,28.0,-100.00,SE,140,0.0,1.0,92,-99.99,,,-99.99,,2013-02-12 11:11:00,
2013-02-12 04:20:00,31.0,29.0,-100.00,South,175,1.0,3.0,92,-99.99,,,-99.99,,2013-02-12 12:20:00,
2013-02-12 05:01:00,31.0,29.0,-100.00,South,175,1.0,3.0,92,-99.99,,,-99.99,,2013-02-12 13:01:00,
2013-02-12 05:10:00,30.0,29.0,-100.00,SE,145,0.0,1.0,96,-99.99,,,-99.99,,2013-02-12 13:10:00,
2013-02-12 05:11:00,31.0,29.0,-100.00,South,175,1.0,3.0,92,-99.99,,,-99.99,,2013-02-12 13:11:00,
2013-02-12 06:01:00,30.0,29.0,-100.00,SE,145,0.0,1.0,96,-99.99,,,-99.99,,2013-02-12 14:01:00,
2013-02-12 07:01:00,31.0,29.0,-100.00,WNW,295,1.0,3.0,92,-99.99,,,-99.99,,2013-02-12 15:01:00,
2013-02-12 07:11:00,31.0,29.0,-100.00,WNW,295,1.0,3.0,92,-99.99,,,-99.99,,2013-02-12 15:11:00,
2013-02-12 08:01:00,31.0,29.0,-100.00,East,95,0.0,1.0,92,-99.99,,,-99.99,,2013-02-12 16:01:00,
2013-02-12 08:10:00,31.0,29.0,-100.00,South,190,0.0,1.0,92,-99.99,,,-99.99,,2013-02-12 16:10:00,
2013-02-12 09:01:00,31.0,29.0,-100.00,South,190,0.0,1.0,92,-99.99,,,-99.99,,2013-02-12 17:01:00,
2013-02-12 10:01:00,32.0,30.0,-100.00,South,180,0.0,2.0,92,-99.99,,,-99.99,,2013-02-12 18:01:00,
2013-02-12 10:10:00,33.0,30.0,-100.00,ENE,60,1.0,3.0,88,-99.99,,,-99.99,,2013-02-12 18:10:00,
2013-02-12 11:00:00,35.0,31.0,-100.00,West,265,3.0,5.0,85,-99.99,,,-99.99,,2013-02-12 19:00:00,
2013-02-12 11:02:00,33.0,30.0,-100.00,ENE,60,1.0,3.0,88,-99.99,,,-99.99,,2013-02-12 19:02:00,
2013-02-12 12:10:00,41.0,32.0,-100.00,SW,215,3.0,6.0,70,-99.99,,,-99.99,,2013-02-12 20:10:00,
2013-02-12 13:01:00,41.0,32.0,-100.00,SW,215,3.0,6.0,70,-99.99,,,-99.99,,2013-02-12 21:01:00,
2013-02-12 13:20:00,44.0,33.0,-100.00,West,265,5.0,7.0,65,-99.99,,,-99.99,,2013-02-12 21:20:00,
2013-02-12 14:01:00,44.0,33.0,-100.00,West,265,5.0,7.0,65,-99.99,,,-99.99,,2013-02-12 22:01:00,
2013-02-12 14:10:00,44.0,33.0,-100.00,WSW,255,9.0,14.0,65,-99.99,,,-99.99,,2013-02-12 22:10:00,
2013-02-12 14:12:00,44.0,33.0,-100.00,West,265,5.0,7.0,65,-99.99,,,-99.99,,2013-02-12 22:12:00,
2013-02-12 15:01:00,44.0,33.0,-100.00,WSW,255,9.0,14.0,65,-99.99,,,-99.99,,2013-02-12 23:01:00,
2013-02-12 16:02:00,45.0,32.0,-100.00,West,265,10.0,15.0,60,-99.99,,,-99.99,,2013-02-13 00:02:00,
2013-02-12 16:10:00,46.0,32.0,-100.00,West,260,5.0,9.0,57,-99.99,,,-99.99,,2013-02-13 00:10:00,
2013-02-12 16:11:00,45.0,32.0,-100.00,West,265,10.0,15.0,60,-99.99,,,-99.99,,2013-02-13 00:11:00,
2013-02-12 17:01:00,46.0,32.0,-100.00,West,260,5.0,9.0,57,-99.99,,,-99.99,,2013-02-13 01:01:00,
2013-02-12 18:01:00,43.0,33.0,-100.00,East,100,0.0,1.0,67,-99.99,,,-99.99,,2013-02-13 02:01:00,
2013-02-12 18:11:00,43.0,33.0,-100.00,East,100,0.0,1.0,67,-99.99,,,-99.99,,2013-02-13 02:11:00,
2013-02-12 19:00:00,39.0,33.0,-100.00,North,0,0.0,2.0,78,-99.99,,,-99.99,,2013-02-13 03:00:00,
2013-02-12 19:01:00,41.0,33.0,-100.00,SE,145,0.0,2.0,72,-99.99,,,-99.99,,2013-02-13 03:01:00,
2013-02-12 22:02:00,34.0,31.0,-100.00,WSW,245,1.0,2.0,88,-99.99,,,-99.99,,2013-02-13 06:02:00,
2013-02-12 22:11:00,34.0,31.0,-100.00,WSW,245,1.0,2.0,88,-99.99,,,-99.99,,2013-02-13 06:11:00,
2013-02-12 23:02:00,34.0,31.0,-100.00,SSE,155,1.0,5.0,88,-99.99,,,-99.99,,2013-02-13 07:02:00,